Regional Weather Roundup
Issued by NWS

Home | Current Version | Previous Version | Graphics & Text | Print | Product List | Glossary On
Versions: 1 2 3 4 5 6 7 8 9 10 11 12 13 14 15 16 17 18 19 20 21 22 23 24 25 26 27
000
ASUS45 KTFX 262310
RWRMT
MONTANA REGIONAL WEATHER ROUNDUP
NATIONAL WEATHER SERVICE GREAT FALLS MT
500 PM MDT TUE JUL 26 2016

NOTE: "FAIR" INDICATES FEW OR NO CLOUDS BELOW 12000 FEET WITH NO
SIGNIFICANT WEATHER AND/OR OBSTRUCTIONS TO VISIBILITY.

MTZ001>007-043-270000-
WEST OF THE DIVIDE

CITY           SKY/WX    TMP DP  RH WIND       PRES   REMARKS
KALISPELL      PTSUNNY   86  51  29 N13G20    30.01F
MISSOULA       MOSUNNY   85  50  29 N23G31    30.01R
BUTTE          CLOUDY    78  40  25 N8        30.18F
MULLAN PASS    PTSUNNY   69  50  50 N5        30.23F
ANACONDA         N/A     75  45  33 S3        30.13F
DEER LODGE       N/A     79  48  34 S6        30.13F
EUREKA           N/A     77  52  41 N13       30.07F
HAMILTON         N/A     88  50  27 CALM      30.01S
LIBBY            N/A     86  48  26 NW8       30.02F
PLAINS           N/A     87  49  26 W8        30.02F
RONAN            N/A     80  55  42 N8        30.09F
$$

MTZ008-052>055-270000-
SOUTHWEST MONTANA

CITY           SKY/WX    TMP DP  RH WIND       PRES   REMARKS
BOZEMAN        LGT RAIN  73  48  41 W23G36    30.12R
DILLON         MOSUNNY   78  43  28 E10       30.14S
W YELLOWSTONE  CLOUDY    77  28  16 NE5       30.24F
ENNIS          SUNNY     79  45  29 SE12      30.23F
THREE FORKS      N/A     69  28  21 CALM      30.11R
TWIN BRIDGES     N/A     82  38  20 S3        30.10F
$$

MTZ009-010-012-014-046-048-049-054-270000-
EAST SLOPES AND CENTRAL MONTANA

CITY           SKY/WX    TMP DP  RH WIND       PRES   REMARKS
CUT BANK       CLOUDY    63  56  78 N9        30.11F
GREAT FALLS    CLOUDY    87  40  19 E7        30.01S
MALMSTROM AFB  CLOUDY    88  41  19 W8        30.00S
HELENA         CLOUDY    92  39  15 W14       30.01F
CHOTEAU          N/A     66  59  77 NW26G36   30.12R
CONRAD           N/A     65  61  87 N10       30.12R
$$

MTZ011-013-016-021-045-047-050-051-270000-
NORTH CENTRAL MONTANA

CITY           SKY/WX    TMP DP  RH WIND       PRES   REMARKS
HAVRE          CLOUDY    88  55  32 VRB7      29.98F
LEWISTOWN      CLOUDY    83  47  28 N3        30.08S
N BAR RANCH      N/A     81  48  32 NE7       30.11S
CHINOOK          N/A     86  57  37 E10       29.98S
$$

MTZ017>020-022>027-061-062-270000-
NORTHEAST MONTANA

CITY           SKY/WX    TMP DP  RH WIND       PRES   REMARKS
GLASGOW        MOSUNNY   83  57  41 E14G22    30.03F
JORDAN           N/A     89  51  27 E10       30.02S
SIDNEY         MOSUNNY   82  63  52 N10       30.05R
WOLF POINT     SUNNY     86  56  35 NE10      30.05F
PLENTYWOOD       N/A     77  55  47 N6        30.09S
POPLAR           N/A     81  55  41 NE8       30.07R
SCOBEY           N/A     67  53  60 CALM      30.08F
$$

MTZ028>42-056>058-270000-
SOUTHCENTRAL AND SOUTHEAST MONTANA

CITY           SKY/WX    TMP DP  RH WIND       PRES   REMARKS
BAKER          SUNNY     83  52  34 NE14      30.07F
BILLINGS       MOSUNNY   91  39  16 E9        30.02F
LIVINGSTON     MOSUNNY   89  35  14 NW7       30.05S
MILES CITY     SUNNY     90  49  24 NE14      30.00F
EKALAKA          N/A     83  52  34 NE12      30.05S
LAUREL           N/A     90  45  21 NE6       30.01F
ROUNDUP          N/A     87  46  23 NE5       29.94S
$$

REGIONAL REPORTS...DAKOTAS

CITY           SKY/WX    TMP DP  RH WIND       PRES   REMARKS
WILLISTON      CLOUDY    79  53  40 NE10      30.07R
MINOT          CLOUDY    80  60  50 N13       30.04R
DICKINSON      SUNNY     75  59  57 NE17G26   30.07R
CROSBY           N/A     73  64  73 N5        30.10S
WATFORD CITY     N/A    N/A N/A N/A MISG        N/A
BISMARCK       CLOUDY    80  66  62 NE18      30.00F
GRAND FORKS    PTSUNNY   84  67  56 NE9       29.95S
FARGO          CLOUDY    82  72  71 E5        29.92F
BUFFALO SD       N/A     86  55  34 N15       29.98S
RAPID CITY     CLOUDY    81  58  45 NE6       30.01R
$$

REGIONAL REPORTS...WYOMING/IDAHO/WASHINGTON

CITY           SKY/WX    TMP DP  RH WIND       PRES   REMARKS
GILLETTE       SUNNY     88  46  23 N13       30.05F
SHERIDAN       CLOUDY    89  45  21 E6        30.04F
BUFFALO WY     CLOUDY    82  45  27 NW26G33   30.13R
CODY           MOSUNNY   82  45  26 NE9       30.11F
YELLOWSTONE LA   N/A     74  28  18 VRB7      30.33S
IDAHO FALLS    PTSUNNY   95  28   9 S6        30.03F
SALMON         CLOUDY    82  41  23 N10G16    30.05R
BOISE          SUNNY     98  41  14 N10       29.94F HX  93
SPOKANE        MOSUNNY   90  46  21 VRB7G16   30.00F
$$

REGIONAL REPORTS...ALBERTA

CITY           SKY/WX    TMP DP  RH WIND       PRES   REMARKS
EDMONTON       MOSUNNY   75  59  57 E2        30.05R
CALGARY        PTSUNNY   75  59  57 E9        30.10R
LETHBRIDGE     LGT RAIN  64  61  88 S6        30.10R
WATERTON GATE    N/A     68  57  68 S6          N/A
CARDSTON         N/A     64  57  77 S3          N/A
MILK RIVER       N/A     59  57  94 SW5         N/A
ONEFOUR          N/A    N/A N/A N/A N13G18      N/A
$$

REGIONAL REPORTS...SASKATCHEWAN

CITY           SKY/WX    TMP DP  RH WIND       PRES   REMARKS
SWIFT CURRENT  MOSUNNY   73  57  56 E15       30.09F
REGINA         PTSUNNY   77  50  38 N8        30.10S
SASKATOON      PTSUNNY   77  43  29 S3        30.13S
CYPRESS HILLS    N/A     70  54  56 E7          N/A
VAL MARIE        N/A     75  57  53 E13         N/A
ROCKGLEN         N/A     68  55  64 SE2         N/A
ASSINIBOIA       N/A     79  63  57 S6          N/A
$$




USA.gov is the U.S. government's official web portal to all federal, state and local government web resources and services.